Weather reports worldwide

Advertisment
J6-A, Netherlands (6211): temperature & dewpoint: 14.10.2019 23:00:00 - 20.10.2019 23:00:00 (CEST)J6-A, Netherlands (6211): wind speed & gusts: 14.10.2019 23:00:00 - 20.10.2019 23:00:00 (CEST)J6-A, Netherlands (6211): wind direction: 14.10.2019 23:00:00 - 20.10.2019 23:00:00 (CEST)J6-A, Netherlands (6211): reduced air pressure: 14.10.2019 23:00:00 - 20.10.2019 23:00:00 (CEST)J6-A, Netherlands (6211): visibility: 14.10.2019 23:00:00 - 20.10.2019 23:00:00 (CEST)
Date & Time tt [°C] td [°C] ff [km/h] ff [kn] fx [km/h] fx [kn] dd ppp [hPa] vv [km]
20.10.2019 23:00:00 14,0 9,0 34 18 - - NNE 1013,6 10
20.10.2019 22:00:00 13,4 8,7 29 16 32 18 NNE 1013,2 10
20.10.2019 21:00:00 13,3 8,6 24 13 29 16 NNE 1012,8 10
20.10.2019 20:00:00 13,3 9,0 24 13 25 14 NNE 1012,3 10
20.10.2019 19:00:00 13,1 8,6 18 10 29 16 NE 1011,6 10
20.10.2019 18:00:00 12,9 8,8 26 14 29 16 NNE 1010,5 10
20.10.2019 17:00:00 12,9 9,2 22 12 25 14 NNE 1010,4 10
20.10.2019 16:00:00 13,3 8,9 18 10 22 12 N 1009,8 10
20.10.2019 15:00:00 12,8 8,7 18 10 25 14 NNW 1009,1 10
20.10.2019 14:00:00 12,6 8,8 28 15 29 16 NW 1008,8 10
20.10.2019 13:00:00 12,4 9,0 28 15 29 16 NW 1008,2 10
20.10.2019 12:00:00 12,2 9,5 22 12 29 16 SW 1007,5 10
20.10.2019 11:00:00 12,3 8,8 24 13 29 16 SW 1007,1 10
20.10.2019 10:00:00 12,4 8,2 29 16 29 16 WSW 1006,6 10
20.10.2019 09:00:00 12,3 7,2 24 13 29 16 WSW 1005,7 10
20.10.2019 08:00:00 12,2 7,7 29 16 32 18 WSW 1005,2 10
20.10.2019 07:00:00 12,3 8,4 26 14 32 18 W 1004,8 10
20.10.2019 06:00:00 12,3 8,1 29 16 40 21 WSW 1004,4 10
20.10.2019 05:00:00 11,8 7,9 37 20 40 21 WSW 1003,8 10
20.10.2019 04:00:00 12,0 8,2 41 22 40 21 SW 1003,5 10
20.10.2019 03:00:00 12,7 8,3 39 21 40 21 SW 1003,5 10
20.10.2019 02:00:00 12,7 8,2 35 19 36 19 SW 1003,3 10
20.10.2019 01:00:00 12,8 8,0 35 19 36 19 SW 1002,7 10
20.10.2019 00:00:00 12,8 7,7 35 19 40 21 SW 1002,4 10
19.10.2019 23:00:00 12,6 7,9 39 21 43 23 WSW 1001,9 10
19.10.2019 22:00:00 12,5 8,0 42 23 43 23 WSW 1001,4 10
19.10.2019 21:00:00 12,6 7,9 48 26 47 25 WSW 1000,9 10
19.10.2019 20:00:00 12,6 8,0 52 28 50 27 SW 1000,6 10
19.10.2019 19:00:00 12,8 7,8 50 27 50 27 SW 999,9 10
19.10.2019 18:00:00 12,7 8,5 46 25 47 25 SSW 999,4 10
19.10.2019 17:00:00 12,6 8,0 37 20 40 21 SW 999,0 10
19.10.2019 16:00:00 12,5 8,5 35 19 36 19 SW 999,1 10
19.10.2019 15:00:00 12,5 8,6 29 16 40 21 SSW 998,8 10
19.10.2019 14:00:00 12,5 8,8 29 16 36 19 SSW 998,9 10
19.10.2019 13:00:00 12,4 8,8 31 17 36 19 SSW 999,2 10
19.10.2019 12:00:00 12,6 8,9 34 18 36 19 SSW 998,6 10
19.10.2019 11:00:00 12,6 9,2 34 18 36 19 SSW 998,7 10
19.10.2019 10:00:00 12,7 9,4 37 20 40 21 SSW 998,2 10
19.10.2019 09:00:00 12,9 9,1 39 21 43 23 SSW 998,0 10
19.10.2019 08:00:00 12,8 9,1 39 21 47 25 SSW 997,9 10
19.10.2019 07:00:00 13,0 8,8 46 25 47 25 SSW 997,9 10
19.10.2019 06:00:00 13,1 9,3 48 26 50 27 SSW 998,0 10
19.10.2019 05:00:00 13,2 9,2 46 25 54 29 SSW 998,2 10
19.10.2019 04:00:00 13,4 9,1 50 27 54 29 SSW 998,7 10
19.10.2019 03:00:00 13,3 8,9 50 27 61 33 SSW 998,7 10
19.10.2019 02:00:00 13,6 9,1 57 31 61 33 SSW 999,0 10
19.10.2019 01:00:00 13,5 9,0 54 29 61 33 SSW 999,0 10
19.10.2019 00:00:00 13,7 8,8 55 30 61 33 SSW 999,1 10
18.10.2019 23:00:00 13,5 8,9 44 24 58 31 SSW 998,8 10
18.10.2019 22:00:00 13,1 8,2 48 26 58 31 SW 998,6 10
18.10.2019 21:00:00 13,0 7,8 57 31 61 33 SSW 998,2 10
18.10.2019 20:00:00 12,9 8,6 46 25 61 33 SW 998,0 10
18.10.2019 19:00:00 12,7 8,3 55 30 58 31 SW 997,7 10
18.10.2019 18:00:00 13,5 7,7 48 26 54 29 SW 997,5 10
18.10.2019 17:00:00 13,1 8,0 54 29 58 31 SW 997,7 10
18.10.2019 16:00:00 12,6 8,4 61 33 58 31 SW 997,2 10
18.10.2019 15:00:00 12,3 7,7 59 32 58 31 WSW 996,6 10
18.10.2019 14:00:00 12,3 9,7 46 25 50 27 WSW 996,1 10
18.10.2019 13:00:00 12,3 9,3 31 17 47 25 SSW 995,3 10
18.10.2019 12:00:00 12,3 9,4 28 15 29 16 S 996,3 10
18.10.2019 11:00:00 11,7 9,1 24 13 43 23 S 996,7 10
18.10.2019 10:00:00 13,5 8,3 39 21 47 25 SSE 997,3 10
18.10.2019 09:00:00 14,2 10,0 29 16 29 16 SSE 998,1 10
18.10.2019 08:00:00 14,2 10,6 28 15 29 16 S 998,8 10
18.10.2019 07:00:00 13,5 8,3 22 12 32 18 SSW 999,3 10
18.10.2019 06:00:00 14,0 11,4 21 11 25 14 SSW 1000,3 10
18.10.2019 05:00:00 14,1 10,4 28 15 29 16 SSW 1001,1 10
18.10.2019 04:00:00 14,0 11,3 26 14 25 14 S 1001,8 10
18.10.2019 03:00:00 14,2 10,0 26 14 32 18 SSW 1002,7 10
18.10.2019 02:00:00 14,3 11,0 31 17 32 18 S 1003,2 10
18.10.2019 01:00:00 14,2 10,9 31 17 32 18 SSW 1003,8 10
18.10.2019 00:00:00 14,2 10,5 31 17 40 21 SSW 1004,0 10
17.10.2019 23:00:00 14,0 10,4 39 21 40 21 SSW 1004,3 10
17.10.2019 22:00:00 13,7 11,0 28 15 40 21 SSE 1004,6 10
17.10.2019 21:00:00 11,5 9,9 29 16 47 25 SSE 1004,9 10
17.10.2019 20:00:00 13,8 10,2 18 10 18 10 SSE 1005,2 10
17.10.2019 19:00:00 13,4 9,9 18 10 18 10 SSE 1005,3 10
17.10.2019 18:00:00 13,5 8,4 16 9 22 12 SSW 1005,7 10
17.10.2019 17:00:00 14,2 7,6 18 10 22 12 S 1006,1 10
17.10.2019 16:00:00 13,9 8,5 16 9 18 10 SSE 1006,7 10
17.10.2019 15:00:00 14,2 7,7 14 8 - - S 1006,4 32
17.10.2019 14:00:00 - - - - - - - - -
17.10.2019 13:00:00 - - - - - - - - -
17.10.2019 12:00:00 - - - - - - - - -
17.10.2019 11:00:00 - - - - - - - - -
17.10.2019 10:00:00 - - - - - - - - -
17.10.2019 09:00:00 - - - - - - - - -
17.10.2019 08:00:00 12,6 6,8 29 16 32 18 SW 1005,6 10
17.10.2019 07:00:00 12,5 7,1 26 14 25 14 SW 1005,1 10
17.10.2019 06:00:00 12,4 6,0 29 16 32 18 WSW 1004,9 10
17.10.2019 05:00:00 12,5 7,0 34 18 36 19 WSW 1004,8 10
17.10.2019 04:00:00 12,7 7,2 28 15 32 18 WSW 1004,6 10
17.10.2019 03:00:00 12,9 6,6 29 16 29 16 WSW 1004,2 10
17.10.2019 02:00:00 13,1 7,5 31 17 36 19 W 1003,7 10
17.10.2019 01:00:00 13,4 8,1 35 19 32 18 W 1003,4 10
17.10.2019 00:00:00 13,5 7,6 37 20 36 19 W 1003,0 10
16.10.2019 23:00:00 13,8 7,9 34 18 36 19 WSW 1003,0 10
16.10.2019 22:00:00 13,7 9,3 39 21 36 19 WSW 1002,1 10
16.10.2019 21:00:00 13,4 10,8 31 17 43 23 W 1001,5 10
16.10.2019 20:00:00 13,8 12,3 41 22 43 23 SW 1001,1 10
16.10.2019 19:00:00 14,1 13,5 41 22 43 23 WSW 1000,6 10
16.10.2019 18:00:00 14,7 14,4 44 24 47 25 SSW 1000,8 25
16.10.2019 17:00:00 14,5 14,5 39 21 40 21 SSE 1001,1 5
16.10.2019 16:00:00 14,1 13,6 39 21 40 21 SSE 1001,1 5
16.10.2019 15:00:00 14,4 12,9 41 22 40 21 SSE 1001,6 10
16.10.2019 14:00:00 14,5 12,4 39 21 40 21 SSE 1002,2 10
16.10.2019 13:00:00 14,5 11,9 34 18 36 19 SSE 1002,7 10
16.10.2019 12:00:00 14,8 11,9 34 18 36 19 SSE 1003,3 10
16.10.2019 11:00:00 14,7 11,6 28 15 29 16 SSE 1003,6 10
16.10.2019 10:00:00 14,3 10,1 26 14 29 16 S 1004,0 10
16.10.2019 09:00:00 13,9 10,6 28 15 29 16 S 1004,2 10
16.10.2019 08:00:00 13,7 11,1 28 15 29 16 SSW 1004,1 10
16.10.2019 07:00:00 13,9 11,8 24 13 25 14 S 1004,2 10
16.10.2019 06:00:00 14,0 12,5 18 10 22 12 SSE 1004,3 10
16.10.2019 05:00:00 14,0 12,4 21 11 22 12 SSE 1004,4 10
16.10.2019 04:00:00 13,7 11,9 21 11 22 12 S 1004,7 10
16.10.2019 03:00:00 13,4 11,0 18 10 18 10 S 1005,0 10
16.10.2019 02:00:00 13,2 10,3 18 10 22 12 SSW 1005,2 10
16.10.2019 01:00:00 13,2 9,6 22 12 25 14 SSW 1005,3 10
16.10.2019 00:00:00 13,2 9,4 24 13 25 14 SW 1005,5 10
15.10.2019 23:00:00 12,9 9,4 21 11 25 14 SW 1005,6 10
15.10.2019 22:00:00 12,9 8,9 28 15 32 18 SSW 1005,1 10
15.10.2019 21:00:00 12,6 9,9 24 13 32 18 SW 1005,0 10
15.10.2019 20:00:00 12,5 9,6 26 14 32 18 SSW 1004,7 10
15.10.2019 19:00:00 12,5 9,6 24 13 32 18 SW 1004,2 10
15.10.2019 18:00:00 12,6 9,7 31 17 36 19 SW 1003,4 10
15.10.2019 17:00:00 12,6 10,0 34 18 36 19 SW 1003,5 10
15.10.2019 16:00:00 12,6 10,1 39 21 43 23 SW 1003,1 10
15.10.2019 15:00:00 12,4 10,4 41 22 43 23 SW 1002,7 10
15.10.2019 14:00:00 12,7 10,3 42 23 47 25 SW 1002,4 10
15.10.2019 13:00:00 12,7 10,9 46 25 47 25 SW 1002,5 10
15.10.2019 12:00:00 12,9 10,7 46 25 50 27 SW 1002,0 10
15.10.2019 11:00:00 12,6 10,9 48 26 50 27 SSW 1001,8 10
15.10.2019 10:00:00 13,3 11,3 39 21 50 27 SSW 1001,0 10
15.10.2019 09:00:00 14,3 12,8 35 19 40 21 SSW 1000,7 10
15.10.2019 08:00:00 14,8 12,9 37 20 36 19 SSW 999,9 10
15.10.2019 07:00:00 15,3 12,7 35 19 36 19 S 1000,0 10
15.10.2019 06:00:00 15,5 14,0 34 18 40 21 S 999,8 10
15.10.2019 05:00:00 15,6 14,1 35 19 36 19 S 999,9 10
15.10.2019 04:00:00 15,7 14,1 37 20 36 19 S 1000,6 10
15.10.2019 03:00:00 15,8 15,1 35 19 40 21 SSE 1000,7 -
15.10.2019 02:00:00 15,4 14,9 34 18 36 19 SE 1000,9 6
15.10.2019 01:00:00 15,4 14,7 31 17 50 27 ESE 1000,7 7
15.10.2019 00:00:00 14,8 14,1 46 25 47 25 ESE 1002,2 -
14.10.2019 23:00:00 14,7 13,4 42 23 43 23 ESE 1003,6 10

tt = temperature
td = dewpoint
ff = wind speed
fx = gusts
dd = wind direction
ppp = reduced air pressure
vv = visibility

Next stations